Time,TemperatureF,DewpointF,PressureIn,WindDirection,WindDirectionDegrees,WindSpeedMPH,WindSpeedGustMPH,Humidity,HourlyPrecipIn,Conditions,Clouds,dailyrainin,SoftwareType,DateUTC
2015-05-24 00:02:00,56.3,33.5,30.26,East,89,1.0,2.0,42,0.00,,,0.00,Wunderground v.1.15,2015-05-24 04:02:00,
2015-05-24 00:07:00,56.1,33.9,30.26,ESE,116,1.0,2.0,43,0.00,,,0.00,Wunderground v.1.15,2015-05-24 04:07:00,
2015-05-24 00:12:00,56.0,32.6,30.26,NNE,30,1.0,2.0,41,0.00,,,0.00,Wunderground v.1.15,2015-05-24 04:12:00,
2015-05-24 00:19:00,56.2,33.4,30.26,ESE,117,1.0,2.0,42,0.00,,,0.00,Wunderground v.1.15,2015-05-24 04:19:00,
2015-05-24 00:24:00,56.0,33.2,30.26,East,99,0.0,1.0,42,0.00,,,0.00,Wunderground v.1.15,2015-05-24 04:24:00,
2015-05-24 00:29:00,56.0,32.6,30.26,East,96,0.0,2.0,41,0.00,,,0.00,Wunderground v.1.15,2015-05-24 04:29:00,
2015-05-24 00:35:00,56.4,31.1,30.26,SSW,207,1.0,5.0,38,0.00,,,0.00,Wunderground v.1.15,2015-05-24 04:35:00,
2015-05-24 00:40:00,57.3,30.5,30.26,WSW,257,1.0,5.0,36,0.00,,,0.00,Wunderground v.1.15,2015-05-24 04:40:00,
2015-05-24 00:45:00,57.1,31.7,30.26,NNE,18,1.0,3.0,38,0.00,,,0.00,Wunderground v.1.15,2015-05-24 04:45:00,
2015-05-24 00:50:00,57.4,32.0,30.26,ESE,109,1.0,5.0,38,0.00,,,0.00,Wunderground v.1.15,2015-05-24 04:50:00,
2015-05-24 00:55:00,56.9,32.2,30.25,ESE,105,1.0,3.0,39,0.00,,,0.00,Wunderground v.1.15,2015-05-24 04:55:00,
2015-05-24 01:00:00,56.5,32.4,30.25,ESE,105,1.0,3.0,40,0.00,,,0.00,Wunderground v.1.15,2015-05-24 05:00:00,
2015-05-24 01:05:00,55.9,32.5,30.26,East,84,1.0,9.0,41,0.00,,,0.00,Wunderground v.1.15,2015-05-24 05:05:00,
2015-05-24 01:12:00,55.5,32.8,30.26,ESE,109,1.0,9.0,42,0.00,,,0.00,Wunderground v.1.15,2015-05-24 05:12:00,
2015-05-24 01:17:00,55.1,33.0,30.26,ESE,117,1.0,9.0,43,0.00,,,0.00,Wunderground v.1.15,2015-05-24 05:17:00,
2015-05-24 01:22:00,55.0,32.9,30.26,SE,125,1.0,9.0,43,0.00,,,0.00,Wunderground v.1.15,2015-05-24 05:22:00,
2015-05-24 01:29:00,54.9,32.8,30.26,ESE,119,1.0,9.0,43,0.00,,,0.00,Wunderground v.1.15,2015-05-24 05:29:00,
2015-05-24 01:35:00,54.7,33.2,30.26,ESE,120,1.0,9.0,44,0.00,,,0.00,Wunderground v.1.15,2015-05-24 05:35:00,
2015-05-24 01:40:00,54.7,33.2,30.26,ESE,122,1.0,9.0,44,0.00,,,0.00,Wunderground v.1.15,2015-05-24 05:40:00,
2015-05-24 01:46:00,54.4,32.9,30.26,ESE,115,0.0,9.0,44,0.00,,,0.00,Wunderground v.1.15,2015-05-24 05:46:00,
2015-05-24 01:51:00,54.7,32.6,30.26,ESE,113,1.0,9.0,43,0.00,,,0.00,Wunderground v.1.15,2015-05-24 05:51:00,
2015-05-24 01:56:00,54.7,33.2,30.26,SE,129,1.0,9.0,44,0.00,,,0.00,Wunderground v.1.15,2015-05-24 05:56:00,
2015-05-24 02:02:00,54.8,33.3,30.25,ESE,112,2.0,2.0,44,0.00,,,0.00,Wunderground v.1.15,2015-05-24 06:02:00,
2015-05-24 02:08:00,54.7,32.6,30.25,ESE,122,2.0,2.0,43,0.00,,,0.00,Wunderground v.1.15,2015-05-24 06:08:00,
2015-05-24 02:13:00,54.8,32.7,30.25,SE,127,2.0,2.0,43,0.00,,,0.00,Wunderground v.1.15,2015-05-24 06:13:00,
2015-05-24 02:19:00,55.0,32.9,30.25,SSW,197,2.0,2.0,43,0.00,,,0.00,Wunderground v.1.15,2015-05-24 06:19:00,
2015-05-24 02:24:00,55.1,33.0,30.25,SE,127,2.0,3.0,43,0.00,,,0.00,Wunderground v.1.15,2015-05-24 06:24:00,
2015-05-24 02:29:00,55.2,33.1,30.25,ESE,121,2.0,3.0,43,0.00,,,0.00,Wunderground v.1.15,2015-05-24 06:29:00,
2015-05-24 02:34:00,55.5,32.8,30.25,SE,139,2.0,3.0,42,0.00,,,0.00,Wunderground v.1.15,2015-05-24 06:34:00,
2015-05-24 02:40:00,55.7,32.9,30.25,SW,229,2.0,3.0,42,0.00,,,0.00,Wunderground v.1.15,2015-05-24 06:40:00,
2015-05-24 02:45:00,55.8,32.4,30.25,SE,140,2.0,3.0,41,0.00,,,0.00,Wunderground v.1.15,2015-05-24 06:45:00,
2015-05-24 02:50:00,56.1,32.7,30.25,WSW,253,2.0,5.0,41,0.00,,,0.00,Wunderground v.1.15,2015-05-24 06:50:00,
2015-05-24 02:55:00,56.3,32.9,30.25,WNW,293,3.0,8.0,41,0.00,,,0.00,Wunderground v.1.15,2015-05-24 06:55:00,
2015-05-24 03:01:00,56.4,33.0,30.25,ESE,118,3.0,8.0,41,0.00,,,0.00,Wunderground v.1.15,2015-05-24 07:01:00,
2015-05-24 03:07:00,56.5,33.1,30.25,SSE,163,2.0,7.0,41,0.00,,,0.00,Wunderground v.1.15,2015-05-24 07:07:00,
2015-05-24 03:12:00,56.7,33.2,30.25,ESE,120,2.0,7.0,41,0.00,,,0.00,Wunderground v.1.15,2015-05-24 07:12:00,
2015-05-24 03:17:00,56.7,33.2,30.25,SSE,162,3.0,7.0,41,0.00,,,0.00,Wunderground v.1.15,2015-05-24 07:17:00,
2015-05-24 03:24:00,56.8,33.9,30.25,ESE,115,3.0,7.0,42,0.00,,,0.00,Wunderground v.1.15,2015-05-24 07:24:00,
2015-05-24 03:30:00,56.6,33.8,30.25,ESE,115,2.0,7.0,42,0.00,,,0.00,Wunderground v.1.15,2015-05-24 07:30:00,
2015-05-24 03:36:00,56.5,33.7,30.25,South,188,3.0,7.0,42,0.00,,,0.00,Wunderground v.1.15,2015-05-24 07:36:00,
2015-05-24 03:41:00,56.5,33.7,30.25,SSW,192,2.0,7.0,42,0.00,,,0.00,Wunderground v.1.15,2015-05-24 07:41:00,
2015-05-24 03:46:00,56.4,33.6,30.24,SE,126,2.0,7.0,42,0.00,,,0.00,Wunderground v.1.15,2015-05-24 07:46:00,
2015-05-24 03:51:00,56.3,33.5,30.25,SE,126,2.0,7.0,42,0.00,,,0.00,Wunderground v.1.15,2015-05-24 07:51:00,
2015-05-24 03:56:00,56.3,33.5,30.25,South,190,1.0,7.0,42,0.00,,,0.00,Wunderground v.1.15,2015-05-24 07:56:00,
2015-05-24 04:01:00,56.4,33.6,30.24,ESE,123,2.0,7.0,42,0.00,,,0.00,Wunderground v.1.15,2015-05-24 08:01:00,
2015-05-24 04:06:00,56.6,33.8,30.24,SE,126,2.0,4.0,42,0.00,,,0.00,Wunderground v.1.15,2015-05-24 08:06:00,
2015-05-24 04:12:00,56.5,33.7,30.24,West,262,2.0,3.0,42,0.00,,,0.00,Wunderground v.1.15,2015-05-24 08:12:00,
2015-05-24 04:17:00,56.5,33.7,30.24,ESE,119,2.0,4.0,42,0.00,,,0.00,Wunderground v.1.15,2015-05-24 08:17:00,
2015-05-24 04:22:00,56.5,33.7,30.24,SSW,193,2.0,2.0,42,0.00,,,0.00,Wunderground v.1.15,2015-05-24 08:22:00,
2015-05-24 04:27:00,56.5,33.7,30.25,SE,129,2.0,3.0,42,0.00,,,0.00,Wunderground v.1.15,2015-05-24 08:27:00,
2015-05-24 04:32:00,56.6,33.8,30.25,East,101,2.0,3.0,42,0.00,,,0.00,Wunderground v.1.15,2015-05-24 08:32:00,
2015-05-24 04:38:00,56.6,33.8,30.25,SSW,205,2.0,3.0,42,0.00,,,0.00,Wunderground v.1.15,2015-05-24 08:38:00,
2015-05-24 04:43:00,56.3,34.1,30.25,East,101,1.0,2.0,43,0.00,,,0.00,Wunderground v.1.15,2015-05-24 08:43:00,
2015-05-24 04:48:00,56.3,34.1,30.25,ESE,111,1.0,2.0,43,0.00,,,0.00,Wunderground v.1.15,2015-05-24 08:48:00,
2015-05-24 04:53:00,56.3,34.1,30.25,SSW,198,1.0,3.0,43,0.00,,,0.00,Wunderground v.1.15,2015-05-24 08:53:00,
2015-05-24 04:58:00,56.2,34.0,30.25,ESE,122,2.0,4.0,43,0.00,,,0.00,Wunderground v.1.15,2015-05-24 08:58:00,
2015-05-24 05:04:00,56.1,34.5,30.25,SE,129,2.0,8.0,44,0.00,,,0.00,Wunderground v.1.15,2015-05-24 09:04:00,
2015-05-24 05:10:00,56.1,34.5,30.25,ESE,119,2.0,8.0,44,0.00,,,0.00,Wunderground v.1.15,2015-05-24 09:10:00,
2015-05-24 05:15:00,56.1,34.5,30.25,SE,139,1.0,8.0,44,0.00,,,0.00,Wunderground v.1.15,2015-05-24 09:15:00,
2015-05-24 05:20:00,55.9,34.3,30.25,SW,235,1.0,8.0,44,0.00,,,0.00,Wunderground v.1.15,2015-05-24 09:20:00,
2015-05-24 05:25:00,56.1,34.5,30.25,SE,126,1.0,8.0,44,0.00,,,0.00,Wunderground v.1.15,2015-05-24 09:25:00,
2015-05-24 05:31:00,56.2,34.6,30.25,SSE,162,2.0,8.0,44,0.00,,,0.00,Wunderground v.1.15,2015-05-24 09:31:00,
2015-05-24 05:36:00,56.3,34.6,30.25,SW,217,2.0,8.0,44,0.00,,,0.00,Wunderground v.1.15,2015-05-24 09:36:00,
2015-05-24 05:41:00,56.4,34.7,30.25,ESE,113,2.0,8.0,44,0.00,,,0.00,Wunderground v.1.15,2015-05-24 09:41:00,
2015-05-24 05:46:00,56.4,34.7,30.25,ESE,122,1.0,8.0,44,0.00,,,0.00,Wunderground v.1.15,2015-05-24 09:46:00,
2015-05-24 05:52:00,56.4,34.7,30.25,SSW,209,1.0,8.0,44,0.00,,,0.00,Wunderground v.1.15,2015-05-24 09:52:00,
2015-05-24 05:57:00,56.3,34.6,30.25,ESE,109,1.0,8.0,44,0.00,,,0.00,Wunderground v.1.15,2015-05-24 09:57:00,
2015-05-24 06:03:00,56.4,34.7,30.25,SE,131,1.0,2.0,44,0.00,,,0.00,Wunderground v.1.15,2015-05-24 10:03:00,
2015-05-24 06:08:00,56.4,34.7,30.25,SW,214,1.0,3.0,44,0.00,,,0.00,Wunderground v.1.15,2015-05-24 10:08:00,
2015-05-24 06:13:00,56.6,34.9,30.25,SW,217,1.0,4.0,44,0.00,,,0.00,Wunderground v.1.15,2015-05-24 10:13:00,
2015-05-24 06:18:00,56.8,35.1,30.25,SSW,211,1.0,4.0,44,0.00,,,0.00,Wunderground v.1.15,2015-05-24 10:18:00,
2015-05-24 06:24:00,57.1,34.8,30.25,SE,146,2.0,2.0,43,0.00,,,0.00,Wunderground v.1.15,2015-05-24 10:24:00,
2015-05-24 06:29:00,57.4,35.1,30.25,South,171,2.0,4.0,43,0.00,,,0.00,Wunderground v.1.15,2015-05-24 10:29:00,
2015-05-24 06:34:00,57.6,35.2,30.25,ESE,109,1.0,3.0,43,0.00,,,0.00,Wunderground v.1.15,2015-05-24 10:34:00,
2015-05-24 06:39:00,57.8,34.8,30.26,SE,127,2.0,3.0,42,0.00,,,0.00,Wunderground v.1.15,2015-05-24 10:39:00,
2015-05-24 06:44:00,58.2,35.2,30.26,SSW,210,2.0,3.0,42,0.00,,,0.00,Wunderground v.1.15,2015-05-24 10:44:00,
2015-05-24 06:49:00,58.5,35.5,30.26,ESE,114,2.0,3.0,42,0.00,,,0.00,Wunderground v.1.15,2015-05-24 10:49:00,
2015-05-24 07:00:00,59.0,34.7,30.26,West,262,2.0,5.0,40,0.00,,,0.00,Wunderground v.1.15,2015-05-24 11:00:00,
2015-05-24 07:06:00,59.3,35.0,30.26,West,280,1.0,8.0,40,0.00,,,0.00,Wunderground v.1.15,2015-05-24 11:06:00,
2015-05-24 07:11:00,59.7,35.3,30.26,SE,124,2.0,8.0,40,0.00,,,0.00,Wunderground v.1.15,2015-05-24 11:11:00,
2015-05-24 07:16:00,60.0,35.6,30.26,East,94,2.0,8.0,40,0.00,,,0.00,Wunderground v.1.15,2015-05-24 11:16:00,
2015-05-24 07:21:00,60.3,35.2,30.26,NW,321,2.0,2.0,39,0.00,,,0.00,Wunderground v.1.15,2015-05-24 11:21:00,
2015-05-24 07:28:00,60.7,36.2,30.26,South,190,2.0,8.0,40,0.00,,,0.00,Wunderground v.1.15,2015-05-24 11:28:00,
2015-05-24 07:33:00,60.9,36.4,30.26,West,271,2.0,8.0,40,0.00,,,0.00,Wunderground v.1.15,2015-05-24 11:33:00,
2015-05-24 07:39:00,61.3,36.8,30.26,WSW,238,2.0,8.0,40,0.00,,,0.00,Wunderground v.1.15,2015-05-24 11:39:00,
2015-05-24 07:44:00,61.6,37.0,30.27,SW,233,1.0,8.0,40,0.00,,,0.00,Wunderground v.1.15,2015-05-24 11:44:00,
2015-05-24 07:49:00,62.2,37.6,30.27,ESE,115,1.0,8.0,40,0.00,,,0.00,Wunderground v.1.15,2015-05-24 11:49:00,
2015-05-24 07:54:00,63.0,37.0,30.27,WSW,242,3.0,8.0,38,0.00,,,0.00,Wunderground v.1.15,2015-05-24 11:54:00,
2015-05-24 07:59:00,63.8,36.3,30.27,West,281,3.0,8.0,36,0.00,,,0.00,Wunderground v.1.15,2015-05-24 11:59:00,
2015-05-24 08:05:00,64.4,37.5,30.27,WSW,254,4.0,7.0,37,0.00,,,0.00,Wunderground v.1.15,2015-05-24 12:05:00,
2015-05-24 08:11:00,64.8,37.2,30.27,West,259,5.0,7.0,36,0.00,,,0.00,Wunderground v.1.15,2015-05-24 12:11:00,
2015-05-24 08:16:00,65.2,36.8,30.27,SW,224,4.0,9.0,35,0.00,,,0.00,Wunderground v.1.15,2015-05-24 12:16:00,
2015-05-24 08:21:00,65.5,37.1,30.27,West,263,4.0,9.0,35,0.00,,,0.00,Wunderground v.1.15,2015-05-24 12:21:00,
2015-05-24 08:28:00,65.8,37.4,30.27,WSW,239,4.0,9.0,35,0.00,,,0.00,Wunderground v.1.15,2015-05-24 12:28:00,
2015-05-24 08:34:00,65.9,38.2,30.27,West,262,4.0,5.0,36,0.00,,,0.00,Wunderground v.1.15,2015-05-24 12:34:00,
2015-05-24 08:39:00,66.2,38.4,30.27,SSW,210,3.0,6.0,36,0.00,,,0.00,Wunderground v.1.15,2015-05-24 12:39:00,
2015-05-24 08:44:00,66.4,37.9,30.27,SW,231,3.0,9.0,35,0.00,,,0.00,Wunderground v.1.15,2015-05-24 12:44:00,
2015-05-24 08:50:00,66.6,38.8,30.27,WSW,253,5.0,9.0,36,0.00,,,0.00,Wunderground v.1.15,2015-05-24 12:50:00,
2015-05-24 08:55:00,66.8,39.0,30.27,WNW,291,5.0,7.0,36,0.00,,,0.00,Wunderground v.1.15,2015-05-24 12:55:00,
2015-05-24 09:01:00,67.1,39.2,30.27,West,265,4.0,7.0,36,0.00,,,0.00,Wunderground v.1.15,2015-05-24 13:01:00,
2015-05-24 09:06:00,67.4,38.8,30.27,SW,226,6.0,13.0,35,0.00,,,0.00,Wunderground v.1.15,2015-05-24 13:06:00,
2015-05-24 09:11:00,67.5,38.9,30.27,NW,311,6.0,13.0,35,0.00,,,0.00,Wunderground v.1.15,2015-05-24 13:11:00,
2015-05-24 09:17:00,67.8,39.1,30.26,WSW,243,4.0,10.0,35,0.00,,,0.00,Wunderground v.1.15,2015-05-24 13:17:00,
2015-05-24 09:22:00,68.0,40.0,30.26,WNW,302,4.0,4.0,36,0.00,,,0.00,Wunderground v.1.15,2015-05-24 13:22:00,
2015-05-24 09:27:00,68.1,39.4,30.26,WNW,295,5.0,9.0,35,0.00,,,0.00,Wunderground v.1.15,2015-05-24 13:27:00,
2015-05-24 09:33:00,68.3,40.3,30.26,WNW,293,6.0,11.0,36,0.00,,,0.00,Wunderground v.1.15,2015-05-24 13:33:00,
2015-05-24 09:38:00,68.4,40.4,30.26,WNW,283,5.0,11.0,36,0.00,,,0.00,Wunderground v.1.15,2015-05-24 13:38:00,
2015-05-24 09:43:00,68.8,40.0,30.26,WNW,290,4.0,9.0,35,0.00,,,0.00,Wunderground v.1.15,2015-05-24 13:43:00,
2015-05-24 09:48:00,68.9,40.1,30.26,West,269,5.0,10.0,35,0.00,,,0.00,Wunderground v.1.15,2015-05-24 13:48:00,
2015-05-24 09:53:00,69.0,40.2,30.26,SW,228,4.0,9.0,35,0.00,,,0.00,Wunderground v.1.15,2015-05-24 13:53:00,
2015-05-24 09:58:00,69.1,41.0,30.26,NNW,328,4.0,9.0,36,0.00,,,0.00,Wunderground v.1.15,2015-05-24 13:58:00,